COSMOS 926

Satellite information

Favourite Embed

Satellite Type and Status

PAYLOADIN ORBIT

Key statistics

Satellite COSMOS 926 at a glance.

Uptime

17695

Days in orbit

Revolutions

≈ 13.7

Per day

Orbit

LEO

Low Earth Orbit

Inclination

82.9

Latest

Satellite identification and parameters

Extended collection of information and parameters for COSMOS 926.

Object identification

Identified? True

Debris? False

Object name: COSMOS 926

International designator: 1977-062A

Object number (NORAD): 10137

Object ID (CCSDS): 10137

Country: COMMONWEALTH OF INDEPENDENT STATES (CIS)

Current information (Y/N): Y

RCS size: LARGE

Orbital parameters

Period: 104.914 minutes

Inclination: 82.9408 deg

SMA: 7368.553 km

Apoapsis: 1014.809 km

Periapsis: 966.027 km

RAAN: 141.4416 deg

Eccentricy: 0.0033101

Argument of periapsis: 150.7689 deg

Mean anomaly: 321.6572 deg

Mean motion: 13.72554025 rev/day

Mean motion (dot): 0.0000006 rev/day2

B* drag term: 0.000048096167 1/REarth

Two-line elements (TLE)

Creation date: Dec. 18, 2025, 2:19 a.m.

Reference frame: TEME

Reference center: EARTH

Epoch: Dec. 17, 2025, 9:47 p.m. UTC

TLE line 0: 0 COSMOS 926

TLE line 1: 1 10137U 77062A 25351.90797427 .00000060 00000-0 48096-4 0 9992

TLE line 2: 2 10137 82.9408 141.4416 0033101 150.7689 321.6572 13.72554025425359

Live tracking on map

Real-time ground track for satellite COSMOS 926.

In-orbit conjunctions

A list of the most updated potential collisions computed for object COSMOS 926.

Target Orbit TCA Probability of collision Miss distance Type
FENGYUN 1C DEB SSO 2025-02-02 04:50:12 0.0001145112 325.0 (m) DEBRIS
DELTA 1 DEB SSO 2024-11-03 16:22:29 0.0001204026 901.0 (m) DEBRIS
SL-8 R/B LEO 2024-10-13 10:04:23 0.001835502 698.0 (m) ROCKET BODY

Associated space launch

Civilian navigation satellite equivalent to the purely military Parus

COSMOS 926 was lifted into orbit during the mission ‘Kosmos-3M | Tsikada 2’, on board a Kosmos-3M space rocket.

The launch took place on July 8, 1977, 5:30 p.m. from 132/1 (132L).

For more information about the launch, click the button.

Launch to space Kosmos-3M | Tsikada 2
Kosmos-3M | Tsikada 2

Agency: N/A

Status: Launch Successful

Launch date: July 8, 1977, 5:30 p.m. UTC

Rocket: Kosmos-3M

Launch pad: 132/1 (132L)

Location: Plesetsk Cosmodrome, Russian Federation

...

Latest news about this satellite

There are no fresh news available about this satellite. Check back as we update our databases every day.


Newsletter sign-up

Weekly statistics, charts and insights to help you stay on top of the space industry.